Tracking 30298 objects as of 27-Apr-2025
HD Live streaming from Space Station
objects crossing your sky now

SATCOM 3 DEB

Track SATCOM 3 DEB now!


NORAD ID: 29003
Int'l Code: 1979-101F
Perigee: 8,145.3 km
Apogee: 35,521.5 km
Inclination: 8.3 °
Period: 785.7 minutes
Semi major axis: 28204 km
RCS: 0.1589 m2 (medium)
Launch date: December 7, 1979
Source: United States (US)
Launch site: AIR FORCE EASTERN TEST RANGE (AFETR)

Note: This is SATELLITE DEBRIS
Your satellite tracking list
Your tracking list is empty




NASA's NSSDC Master Catalog

Two Line Element Set (TLE):
1 29003U 79101F   25116.43370404 -.00000105  00000-0  00000-0 0  9999
2 29003   8.3396  82.5373 4853189 111.0968  14.1744  1.83285476 78962
Source of the keplerian elements: AFSPC